Theta_e
313 313 313 312 310 308 301 292 290 301 298 288 282 283 287 293 290 291 289 288 287 284 285 284 285 285 288 295 296 290 291 286 284 291 297 300 296 292 291 288 287 288 290 292
312 313 313 312 309 308 296 289 289 301 296 284 283 287 289 290 288 289 287 287 289 288 284 281 286 288 293 295 293 292 297 288 282 287 291 295 294 295 291 288 288 289 290 293
311 312 312 312 310 309 297 292 287 291 291 288 285 285 286 288 294 290 290 288 289 287 284 284 284 287 292 295 294 305 296 287 284 282 286 290 291 294 296 289 287 288 292 294
312 312 312 312 311 310 297 292 287 289 283 286 286 286 288 288 289 293 289 285 287 286 280 283 283 287 289 292 297 294 290 285 284 288 292 293 293 294 297 293 292 290 293 296
312 312 312 312 310 307 296 290 288 289 286 286 286 288 289 291 291 290 288 286 291 288 283 285 284 285 284 285 289 288 288 286 288 289 296 297 297 300 299 299 299 295 295 298
312 313 312 312 310 303 295 299 299 290 287 285 285 289 292 292 292 293 294 291 288 287 288 292 290 290 289 289 286 286 286 285 284 285 293 294 292 300 301 302 302 298 293 298
312 312 312 312 310 306 298 297 293 290 285 284 287 290 293 292 292 291 292 292 288 293 297 295 290 288 289 290 289 290 286 284 284 284 290 285 296 305 308 308 312 312 312 313
311 312 312 312 311 309 303 302 298 294 287 290 290 291 292 294 294 291 292 294 295 295 292 285 282 283 283 287 291 288 290 286 283 284 284 292 300 302 301 301 303 312 312 315
311 312 312 311 311 309 304 302 303 297 290 289 292 289 290 286 286 289 291 294 299 298 293 288 282 279 282 283 284 289 289 288 285 284 284 288 296 301 306 307 299 312 314 314
311 312 311 311 311 309 304 303 303 298 292 292 291 286 286 290 287 285 287 290 295 298 286 285 282 280 288 283 283 282 284 284 284 284 285 293 299 302 309 297 299 310 313 314
311 312 311 311 312 310 305 303 304 299 293 293 294 296 291 289 287 284 289 290 293 292 286 285 286 285 290 290 291 287 283 283 284 285 288 287 302 301 297 301 306 310 312 312
310 311 310 310 311 311 307 301 305 304 297 294 295 298 300 298 296 291 289 291 291 294 286 285 288 287 291 292 285 293 287 291 293 292 291 299 302 300 306 307 304 312 310 311
310 310 310 310 311 312 308 302 303 301 296 291 289 293 298 298 300 300 292 294 295 296 297 291 287 286 292 289 289 293 296 296 290 292 296 298 303 304 305 307 306 311 314 312
310 310 309 310 310 312 306 301 301 295 295 289 288 298 295 301 299 300 300 299 299 298 300 295 289 288 295 291 293 292 295 294 291 292 296 299 303 303 305 306 308 309 312 312
310 310 309 310 310 310 308 307 304 299 295 288 286 294 298 298 298 299 299 299 295 296 295 294 290 296 295 295 295 291 297 295 292 292 295 298 300 304 306 305 306 308 308 309
310 310 310 310 309 309 304 300 305 305 300 294 284 293 296 299 299 298 299 297 293 296 297 295 297 300 293 290 289 294 297 299 302 298 300 300 303 304 306 305 306 308 309 309
310 309 309 309 309 303 300 295 299 304 302 295 288 287 295 297 295 296 296 298 298 297 297 297 298 297 295 290 287 293 298 299 302 302 302 298 301 300 305 307 309 309 310 310
309 309 308 309 308 306 302 305 306 303 300 298 290 287 291 297 292 292 294 294 296 296 296 296 294 295 294 287 293 296 298 300 300 301 303 300 302 303 305 308 310 308 308 309
309 309 309 305 302 300 304 309 307 301 300 291 293 280 283 295 292 292 294 292 290 294 292 293 294 292 288 292 294 296 298 296 298 300 303 304 303 303 305 307 309 308 308 310
309 304 301 298 305 311 307 300 298 298 297 294 288 291 288 291 291 291 290 290 287 286 289 293 289 291 297 296 298 299 299 297 299 298 298 300 300 302 302 305 306 307 309 310
301 301 301 304 310 303 300 296 294 295 291 295 295 291 289 294 289 289 292 287 287 284 290 288 287 286 291 297 297 299 298 299 301 301 302 302 302 301 302 301 304 306 308 306
305 306 307 303 300 298 295 293 295 293 293 296 295 292 292 292 296 293 290 289 290 284 291 287 285 287 293 295 296 299 300 300 299 300 299 300 301 301 300 300 301 303 304 304
309 305 302 299 299 290 290 287 288 288 298 298 295 292 292 294 294 290 290 290 289 295 289 287 289 292 294 295 296 299 300 301 300 300 300 299 300 300 300 299 300 302 302 303
303 302 290 297 297 295 298 297 298 302 300 296 297 293 294 296 294 293 289 291 290 285 283 286 291 291 293 294 295 298 297 298 298 298 299 298 298 297 298 298 299 299 299 301
302 299 290 296 299 304 304 303 303 304 304 300 298 298 298 295 290 292 290 287 284 283 281 291 295 294 292 293 293 296 296 296 295 296 297 297 296 295 296 297 297 298 298 298
304 298 296 297 295 298 299 299 298 305 304 305 304 295 293 291 292 289 286 285 277 283 292 297 298 293 291 292 293 293 298 296 295 295 295 295 296 295 295 295 294 294 295 296
300 297 302 298 296 295 295 296 296 303 303 299 300 295 291 294 291 288 288 285 290 293 296 296 292 290 290 292 293 292 295 297 298 295 296 295 295 294 293 292 293 292 293 292
Wind_Speed
16 15 17 16 14 19 8 3 2 5 4 5 2 1 2 4 5 6 6 4 4 3 3 5 6 5 4 10 10 6 4 1 4 8 3 3 6 7 7 7 5 2 5 9
15 14 15 14 12 11 3 3 3 5 4 4 4 6 5 4 3 4 3 2 3 1 3 4 2 5 9 13 10 7 7 4 5 3 6 7 6 3 3 2 3 8 7 8
15 14 13 11 11 10 3 2 5 6 6 2 3 4 4 5 6 1 2 3 3 4 3 1 4 4 4 12 10 10 2 2 5 5 8 4 4 5 2 3 4 5 7 5
11 12 12 10 9 10 3 3 1 2 3 4 3 2 2 3 6 5 4 2 3 4 1 3 3 2 5 7 6 6 5 3 4 7 9 5 5 7 5 5 6 6 7 9
11 11 10 9 8 7 4 2 3 4 1 3 4 5 5 6 4 3 6 2 3 4 5 7 6 2 2 4 6 6 5 3 6 6 5 3 5 8 8 8 6 6 5 8
10 10 10 7 6 5 2 2 2 4 4 5 2 2 3 4 4 4 4 5 2 3 2 4 5 6 5 5 2 2 2 3 5 6 4 7 2 4 3 4 6 5 6 10
9 9 8 5 2 3 2 0 2 2 2 3 1 4 2 8 5 3 4 4 2 4 3 2 3 4 8 9 11 8 2 3 2 6 4 5 5 6 4 6 9 11 8 11
9 8 6 3 1 3 2 1 2 1 2 2 3 6 3 6 4 3 3 4 4 3 2 1 3 3 3 10 14 15 11 4 3 3 2 2 4 8 6 4 4 13 13 15
8 7 5 1 2 6 3 1 1 2 1 1 2 3 3 2 3 6 4 4 2 3 2 1 5 5 5 5 3 9 11 5 3 4 0 2 4 17 13 7 1 14 13 13
7 7 3 0 4 8 3 1 1 2 1 2 2 2 2 2 1 3 4 6 2 3 2 5 5 5 4 3 5 10 7 4 8 6 1 3 15 21 7 6 6 14 12 11
5 5 3 1 4 10 3 1 1 2 1 4 5 5 4 2 1 1 5 4 2 2 2 2 2 4 2 2 3 2 7 8 6 3 4 2 20 9 11 9 7 6 9 9
3 3 3 1 4 10 4 1 0 2 1 4 4 8 11 8 11 2 2 4 2 3 1 3 3 2 3 3 2 4 5 2 3 3 5 1 4 4 10 13 5 6 6 8
1 1 2 1 3 10 4 2 2 1 1 4 3 6 4 3 13 8 2 4 2 4 5 4 2 4 4 2 4 3 3 7 3 2 1 7 7 13 17 17 16 10 6 7
2 3 3 3 3 8 6 2 2 2 0 1 7 5 7 5 6 12 14 13 8 3 2 1 0 2 5 5 4 6 4 5 6 3 5 9 9 15 18 20 19 20 9 4
5 4 4 3 3 7 2 1 3 3 2 2 5 8 6 8 4 8 14 13 6 1 3 2 3 2 4 3 3 6 8 5 4 3 3 5 7 13 17 18 20 20 11 9
6 5 5 5 5 6 2 2 2 4 3 1 4 4 6 7 7 6 6 2 2 3 2 2 3 3 2 3 3 8 10 8 5 4 7 7 8 7 14 15 17 18 15 16
6 6 5 6 7 2 2 3 4 4 2 1 5 6 5 4 4 4 5 4 3 3 2 3 3 4 5 3 4 12 10 6 4 8 8 3 7 7 12 11 14 13 10 11
7 5 6 6 4 3 3 2 4 3 0 1 2 5 4 4 3 4 4 4 4 6 3 3 3 2 3 4 6 9 7 7 6 11 7 4 7 6 8 9 12 13 12 12
8 8 8 3 1 2 2 6 5 1 1 2 2 2 4 4 2 1 4 3 4 3 4 2 3 3 4 2 5 8 7 4 8 8 5 7 7 8 9 11 12 11 13 12
10 3 3 2 2 8 6 2 1 1 2 1 3 1 3 2 2 2 2 3 1 3 2 2 4 3 2 6 7 6 9 6 6 7 11 9 11 11 10 10 9 8 9 11
1 2 2 2 2 2 2 2 3 2 2 3 3 3 1 2 2 0 1 2 1 3 2 3 2 3 4 8 6 6 7 8 8 9 8 9 8 8 8 8 10 11 11 12
1 1 3 2 2 2 3 3 2 4 3 3 3 4 4 3 1 2 3 2 1 1 2 3 2 4 4 5 5 5 7 8 9 8 10 11 10 10 9 9 10 12 12 11
2 1 2 2 2 1 4 2 3 2 4 4 3 1 3 2 3 3 2 2 2 0 2 1 2 4 2 3 4 5 6 8 8 9 10 10 12 12 11 11 12 12 10 11
1 2 2 3 3 4 2 4 3 3 3 5 3 2 2 2 2 2 3 1 2 2 0 1 3 3 3 3 2 3 4 6 5 6 7 8 9 9 10 9 8 9 11 11
3 1 2 4 3 2 2 1 1 1 4 6 2 2 2 1 3 2 3 2 1 3 4 3 3 3 2 1 3 2 3 2 2 4 6 7 7 6 7 9 9 9 8 8
3 3 2 2 2 3 2 2 2 2 3 2 3 3 2 1 3 3 3 5 3 4 2 3 2 3 4 2 3 4 4 3 2 1 2 4 6 7 7 6 7 8 9 9
3 4 3 2 2 3 3 2 3 2 3 1 2 1 2 3 1 3 2 4 3 3 3 3 4 4 4 6 5 5 3 4 3 1 3 2 2 3 4 6 6 5 5 5
Wind_Direction
334 337 336 339 348 345 35 7 57 315 359 50 27 55 284 335 344 26 46 82 78 80 46 359 354 352 54 7 8 6 323 146 285 238 266 201 155 187 161 133 229 218 160 267
338 336 334 338 354 23 346 13 276 315 57 77 346 315 329 0 59 18 52 90 89 80 68 5 336 348 341 8 17 2 340 339 338 35 18 17 58 28 59 123 87 189 149 255
341 338 330 340 353 3 77 31 9 338 34 47 96 8 321 341 337 203 138 152 81 52 37 58 316 306 319 347 333 331 173 239 183 180 250 221 303 314 285 136 123 175 213 257
338 335 336 345 349 353 81 27 319 193 340 340 348 248 325 358 7 341 14 39 151 149 225 320 225 262 324 307 17 3 74 260 212 246 242 215 237 255 265 197 221 178 226 200
338 333 339 349 355 2 66 66 38 359 330 306 337 356 1 15 338 319 333 213 234 158 173 205 260 204 114 254 342 15 347 278 346 274 263 247 243 238 235 228 237 237 241 240
333 336 346 358 359 55 76 320 24 94 334 345 60 29 1 1 347 256 46 317 13 342 291 232 217 205 222 210 207 327 313 70 21 264 294 296 196 328 333 282 37 307 182 226
332 339 351 4 357 96 121 83 96 56 316 33 4 323 341 327 325 272 1 84 66 249 166 292 290 206 218 205 230 180 189 80 144 259 330 190 172 29 12 115 66 10 327 320
330 342 350 24 201 136 87 48 72 67 298 337 281 344 313 299 322 292 237 238 240 80 79 304 319 315 294 226 222 198 185 145 259 210 237 288 6 11 327 6 317 14 333 331
332 341 349 23 131 148 92 74 98 99 313 247 15 296 311 307 313 323 270 321 339 65 77 283 220 225 231 243 252 174 170 190 71 317 131 136 269 323 299 187 265 360 349 337
332 339 345 50 154 155 104 76 83 99 241 274 150 267 270 308 351 254 302 333 5 85 210 233 185 238 242 260 192 148 126 135 213 251 204 27 340 322 311 62 313 331 340 347
319 347 39 78 156 161 106 73 196 124 234 269 196 224 217 271 178 222 279 355 278 240 273 273 196 232 273 264 38 25 139 158 183 185 75 357 350 349 55 320 303 308 355 346
316 34 50 74 154 166 136 111 107 106 204 263 245 245 249 219 223 148 262 240 283 119 298 247 278 279 281 296 91 24 72 333 111 86 147 342 8 61 353 353 299 335 16 351
220 138 124 135 167 170 151 132 130 101 269 302 339 246 266 195 220 185 247 266 214 213 157 209 233 253 253 64 57 81 40 26 68 121 27 333 43 10 6 2 359 336 346 23
193 161 154 161 177 172 142 152 171 105 45 292 281 310 297 214 168 200 218 252 273 92 195 218 324 291 334 45 77 65 358 350 333 46 346 334 36 14 353 351 4 1 336 7
193 168 161 155 164 178 147 265 213 166 98 292 280 301 263 282 240 234 216 237 261 139 358 338 342 7 7 4 42 36 353 1 9 52 334 318 289 338 353 359 359 354 359 358
184 165 169 157 148 130 123 266 244 183 181 304 323 287 286 310 329 345 345 6 128 77 101 3 352 24 59 57 66 349 346 351 348 350 315 277 298 319 358 357 351 354 11 15
180 158 160 160 160 131 194 199 237 155 155 255 308 319 278 301 3 347 350 5 39 96 138 39 18 22 36 42 49 327 348 343 1 349 338 347 10 329 336 357 353 353 356 15
163 158 148 150 158 287 299 214 187 127 216 247 302 278 339 15 5 353 358 4 19 16 73 348 34 31 51 50 343 348 350 339 7 360 352 286 287 317 351 356 9 2 2 352
149 143 137 109 173 208 226 139 113 101 230 281 254 163 277 357 38 349 357 35 48 322 32 15 29 9 46 295 335 335 334 357 331 332 344 0 360 360 8 7 18 3 352 354
143 132 159 212 204 124 105 53 150 215 222 194 236 163 276 52 23 8 40 17 64 57 313 347 41 5 276 264 282 304 323 329 340 351 10 8 12 5 5 9 11 1 356 351
146 170 214 84 103 120 168 205 206 161 236 210 242 183 211 296 87 247 41 157 357 82 296 80 28 330 300 342 346 330 4 19 26 12 13 7 3 358 2 359 6 2 9 3
134 120 110 123 165 189 209 200 183 199 236 185 183 218 191 282 211 112 352 93 74 138 166 95 113 260 288 340 355 18 25 24 21 15 25 19 8 17 10 20 10 5 2 353
142 200 179 156 150 253 204 237 280 248 186 170 144 194 169 360 41 65 79 86 61 43 51 89 198 259 302 344 339 61 28 23 14 9 19 19 13 21 27 20 18 16 7 6
271 224 307 240 175 249 234 204 245 254 118 138 126 131 150 178 130 60 89 360 45 56 322 108 254 242 279 320 331 95 53 40 25 13 15 15 6 357 11 23 15 15 19 10
245 91 237 230 281 218 231 71 3 351 140 120 93 96 107 45 103 73 108 75 162 205 199 166 239 237 259 321 327 90 109 119 56 14 15 4 2 1 1 355 352 10 21 15
223 220 260 294 52 306 326 317 300 124 111 114 128 174 178 151 145 111 131 147 213 237 185 178 230 298 288 270 268 285 212 199 211 121 79 33 15 356 339 350 8 356 357 1
219 250 212 193 240 211 238 204 238 157 152 208 231 287 131 132 104 76 131 164 200 164 142 127 172 208 264 293 306 312 242 213 229 305 328 9 2 355 7 19 342 358 11 346